• în România
  • Lista ţărilor
  • Pe 7 zile
  • Temperatura apei
  • Hartă satelitară
  • Meteo pe hartă
  • Widget-uri
  • user-avatar
    Intrare

    Meteo pe oră la Malonakaryakovo

    Astăzi, 18 Octombrie, Joi

    Timp Temperatura Precipitaţii Vânt Presiune Umiditate
    00:00 +1°C° 0 mm 4 m/s 747 mmHg 82%
    01:00 +1°C° 0 mm 4 m/s 747 mmHg 84%
    02:00 0°C° 0 mm 4 m/s 748 mmHg 85%
    03:00 0°C° 0 mm 4 m/s 748 mmHg 86%
    04:00 +1°C° 0 mm 3 m/s 748 mmHg 90%
    05:00 0°C° 0 mm 3 m/s 748 mmHg 91%
    06:00 -1°C° 0 mm 4 m/s 748 mmHg 92%
    07:00 -1°C° 0 mm 4 m/s 748 mmHg 93%
    08:00 0°C° 0 mm 4 m/s 748 mmHg 89%
    09:00 0°C° 0 mm 4 m/s 748 mmHg 86%
    10:00 +1°C° 0 mm 5 m/s 748 mmHg 82%
    11:00 +1°C° 0 mm 4 m/s 748 mmHg 80%
    12:00 +3°C° 0 mm 4 m/s 748 mmHg 77%
    13:00 +3°C° 0 mm 4 m/s 748 mmHg 75%
    14:00 +3°C° 0 mm 4 m/s 748 mmHg 75%
    15:00 +4°C° 0 mm 3 m/s 748 mmHg 75%
    16:00 +4°C° 0 mm 3 m/s 748 mmHg 75%
    17:00 +4°C° 0 mm 2 m/s 748 mmHg 79%
    18:00 +3°C° 0 mm 2 m/s 748 mmHg 83%
    19:00 +3°C° 0 mm 2 m/s 748 mmHg 87%
    20:00 +3°C° 0 mm 2 m/s 748 mmHg 88%
    21:00 +3°C° 0 mm 2 m/s 748 mmHg 89%
    22:00 +2°C° 0 mm 2 m/s 747 mmHg 90%
    23:00 +3°C° 0 mm 2 m/s 747 mmHg 89%

    Mâine, 19 Octombrie, Vineri

    Timp Temperatura Precipitaţii Vânt Presiune Umiditate
    00:00 +2°C° 0 mm 3 m/s 746 mmHg 87%
    01:00 +3°C° 0 mm 3 m/s 746 mmHg 86%
    02:00 +3°C° 0 mm 3 m/s 745 mmHg 86%
    03:00 +3°C° 0 mm 4 m/s 745 mmHg 87%
    04:00 +3°C° 0 mm 4 m/s 745 mmHg 88%
    05:00 +3°C° 0 mm 4 m/s 744 mmHg 89%
    06:00 +4°C° 0 mm 4 m/s 744 mmHg 91%
    07:00 +4°C° 0 mm 4 m/s 744 mmHg 93%
    08:00 +4°C° 0 mm 3 m/s 744 mmHg 93%
    09:00 +5°C° 0 mm 3 m/s 744 mmHg 93%
    10:00 +5°C° 0 mm 3 m/s 744 mmHg 93%
    11:00 +5°C° 0 mm 3 m/s 744 mmHg 92%
    12:00 +7°C° 0 mm 3 m/s 744 mmHg 91%
    13:00 +7°C° 0 mm 3 m/s 744 mmHg 90%
    14:00 +7°C° 0 mm 3 m/s 744 mmHg 90%
    15:00 +7°C° 0 mm 3 m/s 743 mmHg 90%
    16:00 +7°C° 0 mm 3 m/s 743 mmHg 91%
    17:00 +7°C° 0 mm 3 m/s 743 mmHg 91%
    18:00 +7°C° 0 mm 3 m/s 743 mmHg 92%
    19:00 +7°C° 0 mm 3 m/s 743 mmHg 92%
    20:00 +7°C° 0 mm 3 m/s 743 mmHg 93%
    21:00 +7°C° 0 mm 3 m/s 742 mmHg 93%
    22:00 +7°C° 0 mm 3 m/s 742 mmHg 94%
    23:00 +7°C° 0 mm 3 m/s 742 mmHg 94%

    Poimâine, 20 Octombrie, Sâmbătă

    Timp Temperatura Precipitaţii Vânt Presiune Umiditate
    00:00 +6°C° 0 mm 4 m/s 742 mmHg 94%
    01:00 +6°C° 0 mm 4 m/s 741 mmHg 95%
    02:00 +6°C° 0.3 mm 4 m/s 741 mmHg 95%
    03:00 +7°C° 0.3 mm 4 m/s 741 mmHg 96%
    04:00 +7°C° 0.3 mm 4 m/s 741 mmHg 96%
    05:00 +7°C° 0.7 mm 4 m/s 741 mmHg 97%
    06:00 +8°C° 0.7 mm 4 m/s 740 mmHg 97%
    07:00 +8°C° 0.7 mm 4 m/s 740 mmHg 97%
    08:00 +8°C° 1.4 mm 4 m/s 740 mmHg 97%
    09:00 +8°C° 1.4 mm 4 m/s 740 mmHg 96%
    10:00 +8°C° 1.4 mm 4 m/s 739 mmHg 96%
    11:00 +8°C° 1.4 mm 4 m/s 739 mmHg 94%
    12:00 +8°C° 1.4 mm 4 m/s 739 mmHg 92%
    13:00 +8°C° 1.4 mm 4 m/s 739 mmHg 90%
    14:00 +8°C° 0.3 mm 4 m/s 739 mmHg 86%
    15:00 +8°C° 0.3 mm 4 m/s 740 mmHg 83%
    16:00 +8°C° 0.3 mm 4 m/s 740 mmHg 79%
    17:00 +7°C° 0 mm 4 m/s 741 mmHg 81%
    18:00 +7°C° 0 mm 3 m/s 741 mmHg 84%
    19:00 +5°C° 0 mm 3 m/s 742 mmHg 86%
    20:00 +4°C° 0 mm 3 m/s 742 mmHg 87%
    21:00 +4°C° 0 mm 3 m/s 743 mmHg 88%
    22:00 +4°C° 0 mm 3 m/s 743 mmHg 89%
    23:00 +4°C° 0 mm 3 m/s 743 mmHg 90%

    21 Octombrie, Duminică

    Timp Temperatura Precipitaţii Vânt Presiune Umiditate
    00:00 +4°C° 0 mm 3 m/s 743 mmHg 90%
    01:00 +4°C° 0 mm 3 m/s 744 mmHg 91%
    02:00 +3°C° 0 mm 3 m/s 744 mmHg 92%
    03:00 +3°C° 0 mm 3 m/s 744 mmHg 93%
    04:00 +2°C° 0 mm 3 m/s 745 mmHg 95%
    05:00 +3°C° 0 mm 2 m/s 745 mmHg 95%
    06:00 +3°C° 0 mm 2 m/s 745 mmHg 96%
    07:00 +2°C° 0 mm 2 m/s 745 mmHg 96%
    08:00 +3°C° 0 mm 2 m/s 746 mmHg 93%
    09:00 +4°C° 0 mm 2 m/s 746 mmHg 91%
    10:00 +5°C° 0 mm 2 m/s 747 mmHg 88%
    11:00 +5°C° 0 mm 2 m/s 747 mmHg 86%
    12:00 +6°C° 0 mm 2 m/s 747 mmHg 84%
    13:00 +7°C° 0 mm 2 m/s 747 mmHg 82%
    14:00 +7°C° 0 mm 2 m/s 747 mmHg 82%
    15:00 +7°C° 0 mm 2 m/s 747 mmHg 83%
    16:00 +7°C° 0 mm 2 m/s 748 mmHg 83%
    17:00 +6°C° 0.1 mm 2 m/s 748 mmHg 84%
    18:00 +6°C° 0.1 mm 1 m/s 748 mmHg 86%
    19:00 +6°C° 0.1 mm 1 m/s 748 mmHg 88%
    20:00 +5°C° 0 mm 1 m/s 749 mmHg 89%
    21:00 +5°C° 0 mm 1 m/s 749 mmHg 90%
    22:00 +4°C° 0 mm 1 m/s 749 mmHg 91%
    23:00 +4°C° 0 mm 1 m/s 749 mmHg 91%

    22 Octombrie, Luni

    Timp Temperatura Precipitaţii Vânt Presiune Umiditate
    00:00 +3°C° 0 mm 1 m/s 749 mmHg 91%
    01:00 +3°C° 0 mm 1 m/s 749 mmHg 91%
    02:00 +2°C° 0 mm 0 m/s 749 mmHg 91%
    03:00 +2°C° 0 mm 0 m/s 749 mmHg 91%
    04:00 +1°C° 0 mm 0 m/s 749 mmHg 91%
    05:00 +1°C° 0 mm 0 m/s 749 mmHg 91%
    06:00 +1°C° 0 mm 0 m/s 750 mmHg 91%
    07:00 +1°C° 0 mm 0 m/s 750 mmHg 91%
    08:00 +2°C° 0 mm 0 m/s 750 mmHg 88%
    09:00 +4°C° 0 mm 1 m/s 750 mmHg 84%
    10:00 +5°C° 0 mm 1 m/s 750 mmHg 80%
    11:00 +6°C° 0 mm 1 m/s 750 mmHg 77%
    12:00 +6°C° 0 mm 1 m/s 750 mmHg 74%
    13:00 +6°C° 0 mm 2 m/s 750 mmHg 71%
    14:00 +6°C° 0 mm 2 m/s 749 mmHg 74%
    15:00 +6°C° 0 mm 2 m/s 749 mmHg 77%
    16:00 +6°C° 0 mm 2 m/s 749 mmHg 79%
    17:00 +5°C° 0 mm 2 m/s 749 mmHg 82%
    18:00 +5°C° 0 mm 2 m/s 749 mmHg 84%
    19:00 +4°C° 0 mm 2 m/s 749 mmHg 87%
    20:00 +4°C° 0 mm 2 m/s 748 mmHg 88%
    21:00 +4°C° 0 mm 2 m/s 748 mmHg 88%
    22:00 +3°C° 0 mm 3 m/s 748 mmHg 89%
    23:00 +2°C° 0 mm 3 m/s 747 mmHg 89%

    23 Octombrie, Marţi

    Timp Temperatura Precipitaţii Vânt Presiune Umiditate
    00:00 +2°C° 0 mm 3 m/s 747 mmHg 89%
    01:00 +2°C° 0 mm 3 m/s 747 mmHg 89%
    02:00 +1°C° 0 mm 4 m/s 746 mmHg 89%
    03:00 +1°C° 0 mm 4 m/s 746 mmHg 89%
    04:00 +1°C° 0 mm 4 m/s 746 mmHg 89%
    05:00 +1°C° 0 mm 4 m/s 745 mmHg 87%
    06:00 +3°C° 0 mm 4 m/s 745 mmHg 85%
    07:00 +2°C° 0 mm 5 m/s 745 mmHg 84%
    08:00 +3°C° 0 mm 5 m/s 745 mmHg 81%
    09:00 +5°C° 0 mm 5 m/s 745 mmHg 79%
    10:00 +5°C° 0 mm 5 m/s 744 mmHg 77%
    11:00 +6°C° 0 mm 5 m/s 744 mmHg 76%
    12:00 +7°C° 0 mm 5 m/s 744 mmHg 76%
    13:00 +8°C° 0 mm 5 m/s 744 mmHg 75%
    14:00 +8°C° 0 mm 5 m/s 744 mmHg 77%
    15:00 +8°C° 0 mm 4 m/s 744 mmHg 78%
    16:00 +8°C° 0 mm 4 m/s 744 mmHg 80%
    17:00 +8°C° 0 mm 4 m/s 744 mmHg 81%
    18:00 +8°C° 0 mm 4 m/s 744 mmHg 82%
    19:00 +8°C° 0 mm 3 m/s 744 mmHg 83%
    20:00 +8°C° 0 mm 3 m/s 744 mmHg 83%
    21:00 +8°C° 0 mm 3 m/s 744 mmHg 82%
    22:00 +8°C° 0 mm 3 m/s 744 mmHg 81%
    23:00 +8°C° 0 mm 3 m/s 744 mmHg 81%
    Arată mai mult